Find Starlink 2252

NORAD ID: 48595 Int'l Des: 2021-041 Owner: SPXS Country: US Constellation: starlink operational
LEOCIRCULARSTARLINK_TYPE

リアルタイム位置

3D地球を読み込み中...

Starlink 2252について

説明を読み込み中...

次回通過

Passes for default location (London). Set your location on the main map for personalized predictions.

高度履歴

Loading altitude history...

軌道要素

1 48595U 21041AU 26105.85415514 .00002867 00000-0 21119-3 0 9996
2 48595 53.0541 334.7816 0001529 92.4138 267.7026 15.06411953271934
Epoch: Apr 15, 2026 • Age: 18 hours

現在のステータス

高度 550.8 km
速度 7.59 km/s
衛星直下点 44.36°N, 40.53°W
打ち上げ日 May 15, 2021
運用期間 4.9 years
タイプ internet

技術仕様

分類 Payload
質量 260.00 kg
乾燥質量 248.00 kg
総質量 260.00 kg
長さ 0.20 m
直径 2.80 m
スパン 9.00 m
形状 Box + pan
製造者 SPXS
バスタイプ Starlink
フェーズステータス In Orbit
所有者/国 SPXS/US

Most Searched